Augusta Bush, GA

4:24 AM EST on November 19, 2017 (GMT -0500)
Augusta Regional At Bush

Weather History for KAGS - September, 2013

Change the Weather History Date:

Tuesday, September 17, 2013

  Actual Average Record
Temperature  
Mean Temperature 74 °F 74 °F  
Max Temperature 84 °F 87 °F 100 °F (1931)
Min Temperature 64 °F 62 °F 49 °F (2001)
Degree Days  
Heating Degree Days 0 0  
Month to date heating degree days 0 0  
Since 1 July heating degree days 0 0  
Cooling Degree Days 9 10  
Month to date cooling degree days 228 200  
Year to date cooling degree days 1703 1888  
Growing Degree Days 26 (Base 50)    
Moisture  
Dew Point 64 °F    
Average Humidity 73    
Maximum Humidity 100    
Minimum Humidity 46    
Precipitation  
Precipitation 0.00 in 0.10 in 4.94 in (1881)
Month to date precipitation 0.22 1.83  
Year to date precipitation 45.54 32.70  
Sea Level Pressure  
Sea Level Pressure 30.15 in    
Wind  
Wind Speed 7 mph (ENE)    
Max Wind Speed 17 mph    
Max Gust Speed 21 mph    
Visibility 7 miles    
Events Fog    
T = Trace of Precipitation, MM = Missing Value Source: NWS Daily Summary

Daily Weather History Graph

Daily Weather History Graph

Search for Another Location

Airport or City:

Trip Planner

Search our weather history database for the weather conditions in past years. The results will help you decide how hot, cold, wet, or windy it might be!

Date:

Astronomy

Sep. 17, 2013 Rise Set
Actual Time 7:12 AM EDT 7:31 PM EDT
Civil Twilight 6:47 AM EDT 7:55 PM EDT
Nautical Twilight 6:18 AM EDT 8:24 PM EDT
Astronomical Twilight 5:49 AM EDT 8:54 PM EDT
Moon 6:14 PM EDT (9/17) 5:10 AM EDT (9/17)
Length of Visible Light 13h 07m
Length of Day
12h 18m
Waxing Gibbous, 96% of the Moon is Illuminated
Sep 17
Waxing Gibbous
Sep 19
Full
Sep 26
Last Quarter
Oct 4
New
Oct 11
First Quarter

Hourly Weather History & Observations

Time (EDT) Temp. Heat Index Dew Point Humidity Pressure Visibility Wind Dir Wind Speed Gust Speed Precip Events Conditions
12:27 AM 71.6 °F - 69.8 °F 94% 30.10 in 1.8 mi Calm Calm - N/A   Clear
12:34 AM 71.6 °F - 69.8 °F 94% 30.10 in 0.2 mi Calm Calm - N/A Fog Fog
12:53 AM 70.0 °F - 70.0 °F 100% 30.10 in 1.2 mi Calm Calm - N/A   Clear
12:57 AM 71.6 °F - 69.8 °F 94% 30.10 in 3.0 mi North 4.6 mph - N/A   Clear
1:40 AM 69.8 °F - 69.8 °F 100% 30.10 in 1.8 mi Calm Calm - N/A   Clear
1:51 AM 69.8 °F - 69.8 °F 100% 30.10 in 0.5 mi Calm Calm - N/A Fog Fog
1:53 AM 68.0 °F - 68.0 °F 100% 30.09 in 0.5 mi Calm Calm - N/A Fog Fog
2:04 AM 69.8 °F - 68.0 °F 94% 30.10 in 1.5 mi Calm Calm - N/A   Clear
2:08 AM 69.8 °F - 69.8 °F 100% 30.10 in 4.0 mi Calm Calm - N/A   Clear
2:53 AM 70.0 °F - 69.1 °F 97% 30.09 in 6.0 mi North 4.6 mph - 0.01 in   Partly Cloudy
3:26 AM 69.8 °F - 69.8 °F 100% 30.09 in 1.8 mi Calm Calm - N/A   Partly Cloudy
3:35 AM 69.8 °F - 69.8 °F 100% 30.09 in 3.0 mi Calm Calm - N/A   Partly Cloudy
3:53 AM 72.0 °F - 71.1 °F 97% 30.09 in 7.0 mi Calm Calm - N/A   Mostly Cloudy
4:53 AM 73.0 °F - 71.1 °F 93% 30.11 in 6.0 mi NNE 8.1 mph - N/A   Mostly Cloudy
5:28 AM 73.4 °F - 69.8 °F 88% 30.12 in 10.0 mi ENE 9.2 mph - 0.01 in   Overcast
5:53 AM 72.0 °F - 68.0 °F 87% 30.12 in 10.0 mi ENE 4.6 mph - 0.01 in   Overcast
6:06 AM 71.6 °F - 68.0 °F 88% 30.13 in 10.0 mi ENE 5.8 mph - N/A   Overcast
6:53 AM 70.0 °F - 64.0 °F 81% 30.15 in 10.0 mi NE 8.1 mph - 0.01 in   Mostly Cloudy
7:53 AM 71.1 °F - 63.0 °F 75% 30.18 in 10.0 mi NE 6.9 mph - N/A   Mostly Cloudy
8:53 AM 72.0 °F - 62.1 °F 71% 30.20 in 10.0 mi ENE 11.5 mph - N/A   Mostly Cloudy
9:53 AM 73.0 °F - 60.1 °F 64% 30.22 in 10.0 mi East 8.1 mph - N/A   Overcast
10:53 AM 75.9 °F - 60.1 °F 58% 30.24 in 10.0 mi East 9.2 mph - N/A   Overcast
11:53 AM 78.1 °F - 57.9 °F 50% 30.23 in 10.0 mi NE 15.0 mph 20.7 mph N/A   Scattered Clouds
12:53 PM 79.0 °F - 59.0 °F 50% 30.22 in 10.0 mi NE 12.7 mph 16.1 mph N/A   Overcast
1:53 PM 80.1 °F 80.7 °F 59.0 °F 48% 30.20 in 10.0 mi ESE 9.2 mph 16.1 mph N/A   Partly Cloudy
2:53 PM 84.0 °F 84.4 °F 61.0 °F 46% 30.18 in 10.0 mi ENE 12.7 mph 18.4 mph N/A   Mostly Cloudy
3:53 PM 82.0 °F 82.1 °F 59.0 °F 45% 30.16 in 10.0 mi NE 10.4 mph - N/A   Mostly Cloudy
4:53 PM 81.0 °F 81.6 °F 60.1 °F 49% 30.16 in 10.0 mi ENE 11.5 mph - N/A   Mostly Cloudy
5:53 PM 79.0 °F - 60.1 °F 52% 30.15 in 10.0 mi ENE 10.4 mph - N/A   Mostly Cloudy
6:53 PM 77.0 °F - 60.1 °F 56% 30.15 in 10.0 mi East 6.9 mph - N/A   Overcast
7:53 PM 73.9 °F - 60.1 °F 62% 30.16 in 10.0 mi East 4.6 mph - 0.02 in   Mostly Cloudy
8:53 PM 72.0 °F - 60.1 °F 66% 30.19 in 10.0 mi East 4.6 mph - N/A   Overcast
9:53 PM 71.1 °F - 60.1 °F 68% 30.19 in 10.0 mi East 3.5 mph - N/A   Overcast
10:53 PM 70.0 °F - 59.0 °F 68% 30.20 in 10.0 mi East 5.8 mph - N/A   Mostly Cloudy
11:53 PM 66.9 °F - 59.0 °F 76% 30.20 in 10.0 mi East 3.5 mph - N/A   Clear